| time (UTC) | temp F | wind direction | speed MPH | gust MPH | rain 1hr in | rain 24hr in | rain mn in | humidity % | barometer mb |
| 20260903090034 | 57 | 269 | 3.0 | 6.0 | 0.00 | 0.00 | 0.00 | 73 | 1008.0 |
| 20260903084532 | 57 | 262 | 3.0 | 6.0 | 0.00 | 0.00 | 0.00 | 73 | 1008.0 |
| 20260903083031 | 56 | 286 | 4.0 | 7.0 | 0.00 | 0.00 | 0.00 | 73 | 1008.0 |
| 20260903081532 | 56 | 286 | 0.0 | 2.0 | 0.00 | 0.00 | 0.00 | 72 | 1008.1 |
| 20260903080032 | 57 | 339 | 0.0 | 3.0 | 0.00 | 0.00 | 0.00 | 72 | 1008.1 |
| 20260903074529 | 57 | 313 | 2.0 | 5.0 | 0.00 | 0.00 | 0.00 | 72 | 1008.0 |
| 20260903073038 | 57 | 331 | 1.0 | 5.0 | 0.00 | 0.00 | 0.00 | 72 | 1007.8 |
| 20260903071523 | 57 | 331 | 1.0 | 5.0 | 0.00 | 0.00 | 0.00 | 71 | 1008.0 |
| 20260903070019 | 58 | 291 | 3.0 | 8.0 | 0.00 | 0.00 | 0.00 | 70 | 1008.0 |
| 20260903064516 | 58 | 326 | 4.0 | 9.0 | 0.00 | 0.00 | 0.00 | 69 | 1007.8 |
| 20260903063018 | 58 | 307 | 5.0 | 9.0 | 0.00 | 0.00 | 0.00 | 70 | 1007.9 |
| 20260903061516 | 58 | 296 | 4.0 | 10.0 | 0.00 | 0.00 | 0.00 | 69 | 1007.9 |
| 20260903060018 | 59 | 295 | 4.0 | 14.0 | 0.00 | 0.00 | 0.00 | 68 | 1007.7 |
| 20260903054514 | 59 | 305 | 6.0 | 11.0 | 0.00 | 0.00 | 0.00 | 67 | 1007.7 |
| 20260903053013 | 60 | 264 | 4.0 | 14.0 | 0.00 | 0.00 | 0.00 | 66 | 1007.7 |
| 20260903051514 | 61 | 274 | 7.0 | 13.0 | 0.00 | 0.00 | 0.00 | 65 | 1007.6 |
| 20260903050012 | 61 | 353 | 8.0 | 14.0 | 0.00 | 0.00 | 0.00 | 64 | 1007.7 |
| 20260903044510 | 62 | 286 | 10.0 | 18.0 | 0.00 | 0.00 | 0.00 | 63 | 1007.8 |
| 20260903043010 | 62 | 306 | 10.0 | 15.0 | 0.00 | 0.00 | 0.00 | 62 | 1007.8 |
| 20260903041510 | 63 | 286 | 11.0 | 15.0 | 0.00 | 0.00 | 0.00 | 60 | 1007.7 |
| 20260903040009 | 64 | 261 | 9.0 | 17.0 | 0.00 | 0.00 | 0.00 | 59 | 1007.7 |
| 20260903034516 | 65 | 269 | 8.0 | 18.0 | 0.00 | 0.00 | 0.00 | 57 | 1007.9 |
| 20260903033004 | 65 | 288 | 9.0 | 15.0 | 0.00 | 0.00 | 0.00 | 56 | 1007.9 |
| 20260903031503 | 66 | 340 | 9.0 | 15.0 | 0.00 | 0.00 | 0.00 | 55 | 1008.0 |
| 20260903030002 | 67 | 274 | 11.0 | 18.0 | 0.00 | 0.00 | 0.00 | 49 | 1008.0 |
| 20260903024600 | 68 | 309 | 10.0 | 16.0 | 0.00 | 0.00 | 0.00 | 47 | 1008.0 |
| 20260903023105 | 68 | 236 | 6.0 | 14.0 | 0.00 | 0.00 | 0.00 | 49 | 1008.1 |
| 20260903021555 | 68 | 278 | 9.0 | 15.0 | 0.00 | 0.00 | 0.00 | 46 | 1008.2 |
| 20260903020055 | 68 | 253 | 9.0 | 20.0 | 0.00 | 0.00 | 0.00 | 48 | 1008.4 |
| 20260903014556 | 68 | 233 | 10.0 | 17.0 | 0.00 | 0.00 | 0.00 | 49 | 1008.5 |
| 20260903013050 | 68 | 271 | 7.0 | 15.0 | 0.00 | 0.00 | 0.00 | 50 | 1008.8 |
| 20260903011544 | 68 | 271 | 9.0 | 17.0 | 0.00 | 0.00 | 0.00 | 50 | 1009.0 |
| 20260903010041 | 68 | 300 | 11.0 | 17.0 | 0.00 | 0.00 | 0.00 | 50 | 1009.2 |
| 20260903004539 | 68 | 290 | 10.0 | 18.0 | 0.00 | 0.00 | 0.00 | 50 | 1009.4 |
| 20260903003037 | 68 | 271 | 9.0 | 15.0 | 0.00 | 0.00 | 0.00 | 49 | 1009.8 |
| 20260903001536 | 67 | 279 | 6.0 | 11.0 | 0.00 | 0.00 | 0.00 | 48 | 1009.9 |
| 20260903000041 | 69 | 271 | 4.0 | 14.0 | 0.00 | 0.00 | 0.00 | 47 | 1010.0 |
| 20260902234535 | 68 | 282 | 7.0 | 13.0 | 0.00 | 0.00 | 0.00 | 47 | 1010.1 |
| 20260902233032 | 68 | 300 | 5.0 | 11.0 | 0.00 | 0.00 | 0.00 | 49 | 1010.2 |
| 20260902231531 | 68 | 297 | 7.0 | 13.0 | 0.00 | 0.00 | 0.00 | 49 | 1010.3 |
| 20260902230027 | 67 | 266 | 7.0 | 14.0 | 0.00 | 0.00 | 0.00 | 50 | 1010.3 |
| 20260902224524 | 66 | 321 | 5.0 | 12.0 | 0.00 | 0.00 | 0.00 | 51 | 1010.4 |
| 20260902223042 | 66 | 280 | 7.0 | 11.0 | 0.00 | 0.00 | 0.00 | 52 | 1010.3 |
| 20260902221522 | 65 | 297 | 5.0 | 13.0 | 0.00 | 0.00 | 0.00 | 55 | 1010.4 |
| 20260902220016 | 64 | 263 | 6.0 | 12.0 | 0.00 | 0.00 | 0.00 | 58 | 1010.6 |
| 20260902214513 | 63 | 286 | 7.0 | 13.0 | 0.00 | 0.00 | 0.00 | 60 | 1010.7 |
| 20260902213010 | 62 | 274 | 7.0 | 12.0 | 0.00 | 0.00 | 0.00 | 62 | 1010.8 |
| 20260902211512 | 62 | 265 | 7.0 | 12.0 | 0.00 | 0.00 | 0.00 | 62 | 1010.9 |
| 20260902210003 | 61 | 289 | 5.0 | 12.0 | 0.00 | 0.00 | 0.00 | 65 | 1011.0 |
| 20260902204635 | 60 | 248 | 5.0 | 11.0 | 0.00 | 0.00 | 0.00 | 66 | 1010.9 |
| 20260902203056 | 59 | 301 | 5.0 | 11.0 | 0.00 | 0.00 | 0.00 | 66 | 1011.0 |
| 20260902201552 | 57 | 259 | 5.0 | 10.0 | 0.00 | 0.00 | 0.00 | 68 | 1011.0 |
| 20260902200048 | 56 | 302 | 5.0 | 8.0 | 0.00 | 0.00 | 0.00 | 69 | 1011.1 |
| 20260902194543 | 55 | 283 | 4.0 | 8.0 | 0.00 | 0.00 | 0.00 | 71 | 1010.9 |
| 20260902193040 | 54 | 267 | 2.0 | 5.0 | 0.00 | 0.00 | 0.00 | 73 | 1010.8 |
| 20260902191541 | 54 | 300 | 2.0 | 6.0 | 0.00 | 0.00 | 0.00 | 73 | 1010.6 |
| 20260902190036 | 0 | 0.0 | 0.0 | 0.00 | 0.00 | 0.00 | 1010.4 | ||
| 20260902184535 | 0 | 0.0 | 0.0 | 0.00 | 0.00 | 0.00 | 1010.5 | ||
| 20260902183049 | 0 | 0.0 | 0.0 | 0.00 | 0.00 | 0.00 | 1010.6 | ||
| 20260902181522 | 0 | 0.0 | 0.0 | 0.00 | 0.00 | 0.00 | 1010.5 | ||
| 20260902180018 | 0 | 0.0 | 0.0 | 0.00 | 0.00 | 0.00 | 1010.6 | ||
| 20260902174521 | 0 | 0.0 | 0.0 | 0.00 | 0.00 | 0.00 | 1010.6 | ||
| 20260902173016 | 0 | 0.0 | 0.0 | 0.00 | 0.00 | 0.00 | 1010.6 | ||
| 20260902171505 | 0 | 0.0 | 0.0 | 0.00 | 0.00 | 0.00 | 1010.5 | ||
| 20260902170100 | 0 | 0.0 | 0.0 | 0.00 | 0.00 | 0.00 | 1010.5 | ||
| 20260902164603 | 0 | 0.0 | 0.0 | 0.00 | 0.00 | 0.00 | 1010.3 | ||
| 20260902163052 | 0 | 0.0 | 0.0 | 0.00 | 0.00 | 0.00 | 1010.3 | ||
| 20260902161550 | 54 | 265 | 5.0 | 10.0 | 0.00 | 0.00 | 0.00 | 69 | 1010.2 |
| 20260902160048 | 55 | 283 | 5.0 | 11.0 | 0.00 | 0.00 | 0.00 | 68 | 1010.0 |
| 20260902154544 | 54 | 283 | 6.0 | 10.0 | 0.00 | 0.00 | 0.00 | 69 | 1009.9 |
| 20260902153052 | 54 | 271 | 5.0 | 10.0 | 0.00 | 0.00 | 0.00 | 69 | 1009.9 |
| 20260902151539 | 53 | 278 | 3.0 | 5.0 | 0.00 | 0.00 | 0.00 | 73 | 1010.2 |
| 20260902150037 | 52 | 285 | 0.0 | 1.0 | 0.00 | 0.00 | 0.00 | 72 | 1010.2 |
| 20260902144537 | 53 | 269 | 2.0 | 6.0 | 0.00 | 0.00 | 0.00 | 71 | 1010.2 |
| 20260902143032 | 54 | 299 | 2.0 | 7.0 | 0.00 | 0.00 | 0.00 | 71 | 1010.2 |
| 20260902141527 | 54 | 275 | 4.0 | 8.0 | 0.00 | 0.00 | 0.00 | 71 | 1010.2 |
| 20260902140025 | 53 | 263 | 5.0 | 9.0 | 0.00 | 0.00 | 0.00 | 72 | 1010.4 |
| 20260902134523 | 53 | 265 | 4.0 | 8.0 | 0.00 | 0.00 | 0.00 | 72 | 1010.4 |
| 20260902133020 | 53 | 276 | 5.0 | 10.0 | 0.00 | 0.00 | 0.00 | 72 | 1010.5 |
| 20260902131516 | 53 | 262 | 5.0 | 8.0 | 0.00 | 0.00 | 0.00 | 72 | 1010.3 |
| 20260902130013 | 53 | 264 | 5.0 | 9.0 | 0.00 | 0.00 | 0.00 | 73 | 1010.4 |
| 20260902124510 | 52 | 252 | 3.0 | 5.0 | 0.00 | 0.00 | 0.00 | 74 | 1010.6 |
| 20260902123008 | 52 | 283 | 3.0 | 6.0 | 0.00 | 0.00 | 0.00 | 73 | 1010.5 |
| 20260902121504 | 53 | 267 | 3.0 | 6.0 | 0.00 | 0.00 | 0.00 | 72 | 1010.6 |
| 20260902114559 | 52 | 273 | 1.0 | 3.0 | 0.00 | 0.00 | 0.00 | 73 | 1010.7 |
| 20260902113059 | 51 | 300 | 2.0 | 3.0 | 0.00 | 0.00 | 0.00 | 75 | 1010.7 |
| 20260902111602 | 53 | 264 | 2.0 | 5.0 | 0.00 | 0.00 | 0.00 | 73 | 1010.6 |
| 20260902110104 | 52 | 270 | 2.0 | 4.0 | 0.00 | 0.00 | 0.00 | 74 | 1010.9 |
| 20260902104614 | 53 | 314 | 1.0 | 6.0 | 0.00 | 0.00 | 0.00 | 75 | 1011.0 |
| 20260902103110 | 52 | 268 | 1.0 | 3.0 | 0.00 | 0.00 | 0.00 | 77 | 1011.3 |
| 20260902101605 | 52 | 281 | 0.0 | 1.0 | 0.00 | 0.00 | 0.00 | 78 | 1011.6 |
| 20260902100054 | 52 | 179 | 0.0 | 2.0 | 0.00 | 0.00 | 0.00 | 78 | 1011.2 |
| 20260902094552 | 52 | 271 | 3.0 | 6.0 | 0.00 | 0.00 | 0.00 | 79 | 1011.0 |
| 20260902093051 | 51 | 277 | 2.0 | 5.0 | 0.00 | 0.00 | 0.00 | 80 | 1011.0 |
| 20260902091550 | 51 | 287 | 1.0 | 2.0 | 0.00 | 0.00 | 0.00 | 79 | 1011.0 |